Date,TemperatureHighF,TemperatureAvgF,TemperatureLowF,DewpointHighF,DewpointAvgF,DewpointLowF,HumidityHigh,HumidityAvg,HumidityLow,PressureMaxIn,PressureMinIn,WindSpeedMaxMPH,WindSpeedAvgMPH,GustSpeedMaxMPH,PrecipitationSumIn
2013-1-2,84.6,84.6,84.6,65.6,65.1,64.5,53,52,51,29.98,29.98,2,1,6,0.00
2013-1-3,85.7,85.0,84.4,72.8,72.2,71.6,67,66,65,30.18,30.17,3,2,5,0.00
2013-1-4,93.5,85.4,77.3,74.1,72.2,70.2,88,66,49,30.20,30.11,9,3,9,0.00
2013-1-5,81.1,81.1,81.1,71.6,71.6,71.6,73,73,73,30.12,30.12,4,4,4,0.00
2013-1-6,81.1,81.1,81.1,71.6,71.6,71.6,73,73,73,30.12,30.12,4,4,4,0.00
2013-1-7,81.1,81.1,81.1,71.6,71.6,71.6,73,73,73,30.12,30.12,4,4,4,0.00
2013-1-8,83.8,78.7,73.7,75.1,72.3,71.0,97,81,70,30.19,30.11,15,4,15,0.01
2013-1-9,82.7,77.0,73.2,73.0,71.3,69.4,93,83,71,30.27,30.15,20,5,20,0.00
2013-1-10,81.8,76.3,71.9,70.3,67.6,64.5,85,75,57,30.29,30.17,22,4,22,0.00
2013-1-11,82.5,75.3,68.6,71.3,68.4,65.3,92,80,64,30.25,30.15,17,4,17,0.00
2013-1-12,83.3,73.2,63.7,71.6,67.5,61.9,95,83,62,30.17,30.08,13,2,13,0.00
2013-1-13,83.3,73.9,63.4,69.8,66.1,61.9,96,77,58,30.12,30.06,18,3,18,0.00
2013-1-14,79.4,69.9,61.3,67.7,63.1,59.6,96,80,62,30.16,30.11,13,4,13,0.00
2013-1-15,78.9,78.9,78.9,64.8,64.8,64.8,62,62,62,30.16,30.16,10,10,10,0.00
2013-1-16,78.9,78.9,78.9,64.8,64.8,64.8,62,62,62,30.16,30.16,10,10,10,0.00
2013-1-17,78.9,78.9,78.9,64.8,64.8,64.8,62,62,62,30.16,30.16,10,10,10,0.00
2013-1-18,78.9,78.9,78.9,64.8,64.8,64.8,62,62,62,30.16,30.16,10,10,10,0.00
2013-1-19,78.9,78.9,78.9,64.8,64.8,64.8,62,62,62,30.16,30.16,10,10,10,0.00
2013-5-18,81.3,74.0,68.9,72.9,69.9,67.4,96,87,73,30.09,30.02,3,0,11,0.00
2013-5-19,90.3,81.3,74.7,72.8,70.9,67.7,91,72,50,30.09,29.99,5,1,13,0.00
2013-5-20,75.0,74.5,73.7,72.8,72.3,71.9,94,93,92,30.04,30.02,13,4,7,0.06
2013-5-21,81.1,81.1,81.1,73.2,73.2,73.2,77,77,77,30.01,30.01,4,4,0,0.00
2013-5-22,81.1,81.1,81.1,73.2,73.2,73.2,77,77,77,30.01,30.01,4,4,0,0.00
2013-5-23,81.1,81.1,81.1,73.2,73.2,73.2,77,77,77,30.01,30.01,4,4,0,0.00
2013-6-1,75.1,73.3,72.6,74.2,72.4,71.7,97,97,96,30.00,29.97,9,2,9,1.75
2013-6-2,93.0,78.4,70.5,78.6,73.8,69.5,97,87,58,29.99,29.93,113,36,113,0.01
2013-6-3,90.1,79.3,71.5,77.7,74.2,70.3,97,86,61,30.03,29.90,112,2,91,0.10
2013-6-4,88.9,78.6,73.0,80.5,74.9,71.8,97,89,62,30.04,29.95,12,1,12,0.08
2013-6-5,78.8,78.2,77.2,76.2,75.7,75.1,94,92,90,30.02,29.92,4,0,4,0.01
2013-6-6,78.2,78.2,78.2,76.0,76.0,76.0,93,93,93,29.96,29.96,0,0,0,0.03
2013-6-7,78.2,78.2,78.2,76.0,76.0,76.0,93,93,93,29.96,29.96,0,0,0,0.02
2013-6-8,90.1,83.3,77.3,79.4,77.2,74.9,97,82,68,30.09,29.96,29,4,29,0.01
2013-6-9,88.9,82.7,78.7,77.5,75.8,73.7,91,80,65,30.10,30.02,18,5,18,0.00
2013-6-10,90.4,83.4,79.1,79.2,76.6,75.2,90,81,66,30.09,30.00,20,4,20,0.00
2013-6-11,91.8,82.3,77.4,81.8,77.3,74.3,96,86,59,30.09,29.99,16,3,16,0.21
2013-6-12,95.0,78.7,74.4,80.8,75.8,69.7,97,91,59,30.09,30.01,20,1,20,0.53
2013-6-13,95.0,79.2,72.8,79.0,74.0,71.7,97,85,50,30.05,29.93,31,2,31,0.01
2013-6-14,98.4,81.1,72.6,77.2,73.9,71.3,97,81,46,29.97,29.87,21,4,21,0.01
2013-6-15,99.0,82.4,73.2,78.5,75.0,72.2,97,80,46,30.05,29.92,12,2,12,0.00
2013-6-16,93.3,82.1,72.7,78.6,75.4,71.5,97,82,58,30.08,30.00,14,3,14,0.00
2013-6-17,93.1,83.6,74.8,77.8,75.9,73.3,96,79,57,30.07,30.00,17,4,17,0.00
2013-6-18,80.6,78.4,76.4,76.7,75.6,74.6,95,91,88,30.06,30.02,2,0,2,0.00
2013-6-20,97.0,84.3,74.8,77.7,74.6,71.2,95,74,48,30.08,30.02,32,4,24,0.22
2013-6-21,92.7,82.3,74.3,78.2,74.3,69.9,97,79,52,30.11,30.02,113,18,113,0.93
2013-6-22,95.0,83.2,74.1,76.9,74.5,72.2,96,76,54,30.09,30.03,33,3,33,0.00
2013-6-23,91.0,82.8,75.9,81.9,74.5,71.2,92,77,58,30.12,30.04,18,4,18,0.01
2013-6-24,90.6,82.5,76.1,77.3,75.1,73.4,94,79,62,30.15,30.07,1,0,0,0.15
2013-6-25,92.2,81.8,74.0,79.0,75.6,72.7,97,82,63,30.13,30.03,0,0,0,0.08
2013-6-26,91.8,83.5,77.0,78.6,75.8,71.8,95,79,58,30.07,30.00,15,2,15,0.03
2013-6-27,89.6,81.4,75.7,78.8,75.7,72.0,96,83,66,30.05,29.95,13,2,13,0.02
2013-6-28,93.5,80.8,72.0,79.3,75.0,70.8,97,84,59,29.99,29.85,99,4,99,1.81
2013-6-29,96.9,79.6,72.3,78.8,75.1,71.2,97,88,50,29.91,29.82,26,2,26,0.06
2013-6-30,91.8,79.7,75.3,79.9,75.5,73.5,96,88,61,29.94,29.84,40,5,20,0.69
2013-7-1,90.3,80.2,74.8,79.4,75.8,72.9,96,87,64,30.03,29.91,35,6,35,0.07
2013-7-2,89.4,81.4,75.0,79.2,76.7,73.7,96,86,70,30.10,29.97,21,5,21,0.02
2013-7-3,88.8,81.5,75.5,78.6,76.1,73.2,95,84,69,30.11,30.04,47,8,47,0.05
2013-7-8,93.6,85.8,78.1,76.6,74.8,73.1,89,70,56,30.13,30.07,12,3,12,0.00
2013-7-9,93.4,81.3,73.2,76.6,73.4,70.8,97,79,51,30.13,30.04,15,2,15,0.00
2013-7-10,87.0,78.1,72.1,78.3,74.0,70.9,97,88,67,30.08,29.99,13,2,13,0.07
2013-7-11,94.4,80.8,73.3,79.0,74.6,72.4,97,83,55,30.03,29.93,16,3,16,0.01
2013-7-12,90.9,79.5,73.7,81.4,74.7,71.8,97,86,56,29.97,29.89,101,2,101,0.79
2013-7-13,89.3,75.3,71.8,77.2,72.5,70.7,97,92,63,30.02,29.91,113,5,113,2.05
2013-7-14,90.8,77.5,71.3,77.0,73.1,70.1,97,88,60,30.09,29.98,113,30,113,1.11
2013-7-15,93.4,79.7,71.2,77.9,73.5,70.3,97,83,56,30.08,30.00,15,2,15,0.02
2013-7-16,85.6,77.6,72.6,75.5,72.8,70.8,96,86,67,30.13,30.04,27,3,27,0.16
2013-7-17,79.3,74.3,71.6,77.6,72.7,69.8,97,95,83,30.14,30.03,100,2,100,1.33
2013-7-18,86.3,75.7,71.3,79.7,73.3,70.0,97,93,76,30.12,30.05,20,2,20,1.39
2013-7-19,72.7,72.4,72.1,71.9,71.5,71.2,98,97,97,30.09,30.07,1,0,0,0.00
2013-7-26,96.6,84.3,75.6,81.0,76.4,74.1,96,80,55,30.00,29.93,96,6,96,0.47
2013-7-27,94.9,78.8,74.1,80.6,76.0,72.6,97,92,60,30.00,29.93,29,2,29,0.98
2013-7-28,87.0,79.9,74.9,79.6,76.3,73.3,97,89,72,30.07,29.95,17,2,17,0.06
2013-7-29,95.6,81.8,73.7,79.8,76.2,72.8,97,85,57,30.13,30.01,13,2,13,0.00
2013-7-30,94.9,83.2,73.7,80.8,77.2,72.5,97,83,60,30.15,30.07,112,2,112,0.62
2013-7-31,92.0,83.5,75.2,78.8,76.0,73.2,97,79,57,30.10,30.00,16,3,16,0.00
2013-8-1,93.5,83.3,74.5,78.3,75.1,71.0,95,77,56,30.05,29.93,15,3,15,0.00
2013-8-2,94.3,80.3,74.1,78.8,74.4,70.6,96,84,55,30.05,29.91,13,2,13,0.23
2013-8-3,88.3,76.6,70.8,79.7,74.3,68.6,97,93,71,30.13,30.01,28,1,28,0.77
2013-8-4,100.3,83.3,74.3,80.1,75.5,73.4,98,80,46,30.10,29.97,12,2,12,0.01
2013-8-5,78.4,77.0,75.8,75.9,75.0,74.1,95,94,92,30.03,29.98,3,0,3,0.00
2013-8-6,75.8,75.8,75.8,74.3,74.3,74.3,95,95,95,29.98,29.98,0,0,0,0.00
2013-8-7,92.7,86.7,81.3,79.3,76.9,75.2,87,73,59,29.98,29.91,17,7,17,0.00
2013-8-8,91.9,84.3,76.8,78.4,76.3,73.0,95,78,61,30.01,29.92,112,6,112,0.11
2013-8-9,87.9,82.0,76.5,79.1,75.2,71.9,94,80,67,30.06,29.94,21,4,21,0.04
2013-8-10,92.8,84.3,76.2,78.7,76.3,73.8,94,78,56,30.11,30.02,18,4,18,0.00
2013-8-11,94.9,85.3,78.7,79.5,76.9,75.5,91,77,60,30.12,30.05,14,3,14,0.00
2013-8-12,95.2,82.2,73.3,79.8,75.5,72.1,97,81,55,30.10,30.00,11,2,11,0.01
2013-8-13,94.5,83.5,75.1,78.8,75.5,72.9,97,79,54,30.04,29.95,14,3,14,0.00
2013-8-14,93.6,82.9,73.9,78.1,75.1,72.7,97,79,57,30.02,29.92,16,4,16,0.00
2013-8-15,88.0,80.1,74.0,79.2,76.1,72.5,96,88,72,30.06,29.96,13,3,13,0.11
2013-8-16,93.0,84.0,76.1,80.7,77.5,74.4,97,82,60,30.05,29.97,13,3,13,0.00
2013-8-17,93.0,85.4,78.8,80.8,78.2,75.5,92,80,65,30.07,29.99,18,4,18,0.00
2013-8-18,92.5,84.3,80.5,80.9,77.5,75.8,90,81,65,30.07,29.98,20,4,20,0.03
2013-8-19,82.1,82.1,82.1,76.8,76.8,76.8,84,84,84,30.01,30.01,0,0,3,0.00
2013-8-20,93.0,87.1,80.4,79.0,76.9,73.3,89,73,57,30.06,29.98,16,4,16,0.01
2013-8-21,89.8,81.7,76.3,82.3,77.4,74.2,96,87,71,30.06,29.98,112,3,112,0.27
2013-8-22,91.7,82.5,71.9,80.4,76.9,70.4,97,84,63,30.08,29.95,113,35,113,0.37
2013-8-23,93.5,82.1,74.7,81.3,76.4,73.2,97,84,60,30.01,29.93,13,2,13,0.03
2013-8-24,96.3,83.0,75.0,79.4,75.8,71.7,97,81,56,30.11,29.96,15,2,15,0.04
2013-8-25,88.5,79.7,75.0,79.0,75.4,73.4,97,87,67,30.15,30.02,12,2,12,0.09
2013-8-26,95.9,80.7,73.0,79.2,74.8,71.7,96,83,56,30.11,30.00,16,2,16,0.02
2013-8-27,91.3,78.3,71.8,78.1,73.6,70.9,97,86,56,30.04,29.96,14,1,14,0.05
2013-8-28,89.1,78.2,71.0,79.2,73.9,69.3,97,88,64,30.03,29.94,62,3,62,0.26
2013-8-29,96.4,81.6,71.8,79.0,74.9,70.7,97,82,54,30.02,29.92,13,2,13,0.00
2013-8-30,97.5,83.1,73.3,76.7,74.6,71.8,97,78,48,30.00,29.90,12,3,12,0.00
2013-9-5,93.7,85.5,77.1,82.0,77.7,75.0,94,78,63,30.06,29.99,12,2,12,0.00
2013-9-6,97.6,84.2,75.3,80.2,76.5,74.0,97,80,49,30.03,29.91,14,2,14,0.00
2013-9-7,86.4,76.6,71.9,82.1,74.4,70.1,97,93,78,29.98,29.89,13,1,13,0.63
2013-9-8,97.8,78.5,71.0,81.1,74.1,70.1,98,88,52,29.94,29.85,13,1,13,0.01
2013-9-9,95.3,81.6,71.5,79.9,74.5,70.4,97,81,56,29.99,29.89,18,2,18,0.01
2013-9-10,94.3,81.7,74.0,78.9,75.4,73.0,97,83,57,30.03,29.94,20,3,20,0.04
2013-9-11,84.3,77.7,72.0,79.4,74.7,70.6,97,91,78,30.05,29.96,112,4,112,1.16
2013-9-12,85.3,78.9,74.1,79.4,75.8,72.7,97,90,77,30.01,29.88,7,0,7,0.02
2013-9-13,99.8,83.1,72.2,79.7,75.0,71.3,97,79,45,29.90,29.79,21,2,21,0.00
2013-9-14,100.8,84.0,73.5,79.1,74.8,72.0,97,76,44,29.97,29.82,12,2,12,0.00
2013-9-15,87.3,78.6,74.4,79.4,76.0,72.7,97,92,77,30.04,29.91,13,1,13,0.10
2013-9-16,84.4,79.4,76.6,79.0,76.3,74.5,97,90,80,30.03,29.95,17,2,17,0.04
2013-9-17,87.7,79.4,74.9,81.1,75.8,73.7,97,89,73,30.02,29.92,12,2,12,0.11
2013-9-18,92.0,82.9,73.6,78.8,75.5,72.1,96,79,63,30.01,29.92,13,2,13,0.16
2013-9-19,94.8,79.9,72.2,80.8,74.9,71.3,98,86,59,30.00,29.92,17,3,17,0.07
2013-9-20,96.0,80.7,70.4,76.1,72.6,69.5,97,79,47,29.99,29.89,14,3,14,0.01
2013-9-21,93.4,80.3,70.2,77.6,73.6,69.3,97,81,56,29.91,29.76,12,2,12,0.01
2013-9-22,95.1,83.3,74.1,78.5,75.4,71.7,97,79,50,29.86,29.75,14,4,14,0.00
2013-9-23,90.0,79.3,75.3,80.4,76.5,74.0,97,91,69,29.97,29.85,21,1,21,0.78
2013-9-24,96.2,81.4,73.7,82.3,75.6,72.3,98,84,54,29.96,29.86,113,15,113,0.27
2013-9-25,92.0,79.5,72.0,84.0,74.9,70.3,96,87,60,29.91,29.80,14,4,14,0.29
2013-9-26,75.9,75.2,74.4,74.7,74.2,73.5,97,97,96,29.84,29.81,4,1,4,0.00
2013-9-27,75.2,75.2,75.2,74.3,74.3,74.3,97,97,97,29.83,29.83,2,2,0,0.00
2013-9-28,75.2,75.2,75.2,74.3,74.3,74.3,97,97,97,29.83,29.83,2,2,0,0.00
2013-9-29,75.2,75.2,75.2,74.3,74.3,74.3,97,97,97,29.83,29.83,2,2,0,0.00
2013-9-30,75.2,75.2,75.2,74.3,74.3,74.3,97,97,97,29.83,29.83,2,2,0,0.00
2013-10-1,75.2,75.2,75.2,74.3,74.3,74.3,97,97,97,29.83,29.83,2,2,0,0.00
2013-10-2,75.2,75.2,75.2,74.3,74.3,74.3,97,97,97,29.83,29.83,2,2,0,0.00
2013-10-3,75.2,75.2,75.2,74.3,74.3,74.3,97,97,97,29.83,29.83,2,2,0,0.00
2013-10-4,75.2,75.2,75.2,74.3,74.3,74.3,97,97,97,29.83,29.83,2,2,0,0.00
2013-10-5,75.2,75.2,75.2,74.3,74.3,74.3,97,97,97,29.83,29.83,2,2,0,0.00
2013-10-6,75.2,75.2,75.2,74.3,74.3,74.3,97,97,97,29.83,29.83,2,2,0,0.00
2013-10-7,75.2,75.2,75.2,74.3,74.3,74.3,97,97,97,29.83,29.83,2,2,0,0.00
2013-10-8,75.2,75.2,75.2,74.3,74.3,74.3,97,97,97,29.83,29.83,2,2,0,0.00
2013-10-9,95.4,82.5,74.7,79.2,75.2,71.9,97,80,57,29.98,29.83,23,4,23,0.00
2013-10-10,98.2,80.6,70.4,80.9,72.3,68.7,97,78,49,30.00,29.92,15,3,15,0.01
2013-10-11,98.9,79.4,66.6,74.9,69.0,65.6,97,74,40,30.00,29.93,14,2,14,0.00
2013-10-12,99.3,78.4,65.4,75.1,68.7,64.2,97,75,39,30.02,29.94,12,1,12,0.00
2013-10-13,92.7,78.6,69.3,74.9,68.6,64.6,97,75,45,30.04,29.95,13,2,13,0.00
2013-10-14,96.1,78.0,67.9,73.4,69.3,65.7,97,77,43,30.01,29.89,113,4,113,0.00
2013-10-15,97.5,79.1,69.2,76.1,70.7,67.6,97,79,46,29.95,29.86,113,36,113,0.00
2013-10-16,96.5,76.7,68.3,73.9,69.9,67.0,97,81,46,29.94,29.87,113,11,113,0.00
2013-10-17,93.0,77.9,67.9,77.5,70.8,66.7,97,81,54,29.96,29.88,113,3,113,0.00
2013-10-18,92.0,79.7,68.6,78.3,72.0,67.6,97,79,56,29.98,29.89,113,6,113,0.00
2013-10-19,94.7,81.0,70.2,75.6,73.0,68.7,96,78,53,29.95,29.86,12,4,12,0.00
2013-10-20,94.7,81.1,74.0,78.9,74.9,72.4,97,83,50,29.95,29.86,112,3,112,0.00
2013-10-21,92.6,81.7,73.5,79.0,75.1,72.0,97,82,61,29.99,29.89,13,4,13,0.00
2013-12-7,76.3,74.9,73.6,71.1,70.4,69.8,88,86,84,30.16,30.15,2,0,4,0.00
2013-12-9,84.2,75.0,67.8,70.2,67.4,66.0,96,79,60,30.15,30.10,14,3,14,0.00
2013-12-10,87.1,75.9,66.8,74.1,70.6,65.6,97,85,64,30.15,30.07,12,2,12,0.00
2013-12-11,90.3,75.2,67.4,78.2,70.3,66.5,98,86,60,30.19,30.11,12,1,12,0.00
2013-12-12,86.0,71.2,62.4,75.4,66.0,59.1,98,85,62,30.22,30.12,13,3,13,0.00
2013-12-13,82.3,73.3,62.0,69.1,64.7,58.7,94,75,59,30.18,30.08,112,5,15,0.04
2013-12-14,82.3,75.9,70.5,73.0,70.4,68.2,95,84,71,30.10,29.98,112,8,112,0.08
2013-12-15,84.5,75.3,69.2,75.7,71.6,67.4,97,89,72,30.05,29.92,20,5,20,0.00
2013-12-16,79.2,67.7,60.6,67.4,61.7,58.2,94,82,61,30.15,30.03,10,3,10,0.00
2013-12-17,71.3,61.0,57.7,60.6,57.8,56.0,96,90,69,30.16,30.11,12,1,6,0.00
2013-12-18,86.1,68.0,57.0,62.6,58.5,55.5,97,75,43,30.23,30.13,12,2,12,0.00
2013-12-19,81.8,68.3,54.0,67.5,59.8,52.9,97,76,53,30.23,30.14,15,2,15,0.00
2013-12-20,81.9,75.7,61.8,71.2,68.1,60.1,96,78,65,30.18,30.09,13,3,13,0.00
2013-12-21,84.0,77.4,73.7,72.9,71.2,69.1,90,82,67,30.14,30.05,20,7,20,0.00
2013-12-22,84.3,78.2,75.1,73.5,72.0,70.7,90,82,69,30.15,30.07,23,9,23,0.00
2013-12-23,85.1,76.5,68.5,74.4,71.5,67.3,96,85,69,30.17,30.10,18,6,18,0.01
2013-12-24,89.5,71.7,64.8,75.6,66.6,60.9,98,85,57,30.17,30.07,18,3,18,0.00
2013-12-25,80.5,71.9,68.1,68.1,65.2,63.4,86,80,65,30.16,30.09,21,7,21,0.00
2013-12-26,80.4,75.5,71.8,71.5,69.7,67.6,93,82,65,30.16,30.06,10,2,10,0.03
2013-12-27,84.4,74.4,65.4,75.1,69.5,64.5,98,85,67,30.18,30.08,113,33,113,0.04
2013-12-28,79.3,75.8,72.5,72.3,70.5,67.6,91,84,77,30.16,30.02,16,5,16,0.00
2013-12-29,82.1,76.8,73.9,74.3,72.8,71.3,96,88,77,30.03,29.92,20,8,20,0.00
2013-12-30,85.8,74.2,67.8,72.9,69.8,64.1,97,87,63,30.13,29.97,14,2,14,0.00
2013-12-31,85.5,74.1,66.0,71.0,65.2,62.0,90,75,55,30.21,30.10,18,5,18,0.00
2014-1-1,80.8,73.8,69.8,73.8,70.0,65.0,97,88,75,30.18,30.03,113,34,113,0.23
2014-1-2,88.1,74.7,65.6,73.7,68.9,64.7,98,84,56,30.03,29.86,113,44,113,0.01